Tracking 17145 objects as of 23-May-2015
HD Live streaming from Space Station

MINOTAUR R/B

Track MINOTAUR R/B now!
10-day predictions
MINOTAUR R/B is classified as:


NORAD ID: 26066
Int'l Code: 2000-004F
Perigee: 750.8 km
Apogee: 797.3 km
Inclination: 100.2 °
Period: 100.2 minutes
Semi major axis: 7145 km
RCS: 1.5369 m2 (large)
Launch date: January 27, 2000
Source: United States (US)

Note: This is a ROCKET BODY
Your satellite tracking list
Your tracking list is empty





NASA's NSSDC Master Catalog

Two Line Element Set (TLE):
1 26066U 00004F   15142.64410233  .00000081  00000-0  46666-4 0  9991
2 26066 100.2166 007.6631 0032521 261.0644 166.5821 14.37452049803242

Source of the keplerian elements: AFSPC

N2YO: 286